This is the latest recevied weather packets stored in our database for station/object AI5BL. If no packets are shown the sender has not sent any weather packets the latest 10 day(s).
| Time | Temp. | Humidity | Pressure | Rain* | Wind** | Luminosity | Snow |
|---|---|---|---|---|---|---|---|
| 1778189200 | 20.56° C | 83% | 1016.6 hPa | 0 mm | - | 137 W/m² | - |
| 1778188897 | 20.56° C | 83% | 1016.6 hPa | 0 mm | - | 111 W/m² | - |
| 1778188594 | 20.56° C | 83% | 1016.5 hPa | 0 mm | - | 148 W/m² | - |
| 1778188289 | 20.56° C | 82% | 1016.7 hPa | 0 mm | - | 165 W/m² | - |
| 1778187988 | 20.56° C | 81% | 1016.5 hPa | 0 mm | - | 127 W/m² | - |
| 1778187684 | 21.67° C | 80% | 1016.6 hPa | 0 mm | - | 159 W/m² | - |
| 1778187381 | 21.67° C | 80% | 1016.5 hPa | 0 mm | - | 187 W/m² | - |
| 1778187077 | 21.67° C | 82% | 1016.7 hPa | 0 mm | - | 172 W/m² | - |
| 1778186773 | 21.67° C | 80% | 1016.6 hPa | 0 mm | - | 275 W/m² | - |
| 1778186471 | 21.67° C | 80% | 1016.8 hPa | 0 mm | - | 242 W/m² | - |
| 1778186169 | 21.11° C | 83% | 1016.7 hPa | 0 mm | - | 244 W/m² | - |
| 1778185866 | 21.67° C | 81% | 1016.7 hPa | 0 mm | - | 209 W/m² | - |
| 1778185561 | 21.67° C | 80% | 1016.6 hPa | 0 mm | - | 216 W/m² | - |
| 1778185258 | 21.67° C | 80% | 1016.7 hPa | 0 mm | - | 209 W/m² | - |
| 1778184953 | 21.11° C | 83% | 1016.7 hPa | 0 mm | - | 191 W/m² | - |
| 1778184650 | 21.11° C | 81% | 1016.8 hPa | 0 mm | - | 172 W/m² | - |
| 1778184345 | 21.11° C | 83% | 1016.7 hPa | 0 mm | - | 135 W/m² | - |
| 1778184042 | 21.67° C | 82% | 1016.6 hPa | 0 mm | - | 134 W/m² | - |
| 1778183739 | 21.67° C | 83% | 1016.7 hPa | 0 mm | - | 144 W/m² | - |
| 1778183437 | 22.22° C | 80% | 1016.7 hPa | 0 mm | - | 140 W/m² | - |
| 1778183133 | 22.22° C | 80% | 1016.8 hPa | 0 mm | - | 162 W/m² | - |
| 1778182829 | 22.78° C | 79% | 1016.5 hPa | 0 mm | - | 225 W/m² | - |
| 1778182526 | 22.22° C | 78% | 1016.4 hPa | 0 mm | - | 264 W/m² | - |
| 1778182223 | 22.78° C | 76% | 1016.5 hPa | 0 mm | - | 258 W/m² | - |
| 1778181919 | 23.33° C | 76% | 1016.6 hPa | 0 mm | - | 228 W/m² | - |
* Rain latest hour (hover to see other rain measurements)
** Current wind speed in m/s (hover to see current wind gust speed)